Year,Month,Day,Hour,Minute,Value (Times are PST for temperature in C)
2019,03,27,00,00,5.20
2019,03,27,00,01,5.20
2019,03,27,00,02,5.20
2019,03,27,00,03,5.10
2019,03,27,00,04,5.10
2019,03,27,00,05,5.10
2019,03,27,00,06,5.10
2019,03,27,00,07,5.10
2019,03,27,00,08,5.10
2019,03,27,00,09,5.10
2019,03,27,00,10,5.00
2019,03,27,00,11,5.00
2019,03,27,00,12,5.00
2019,03,27,00,13,4.90
2019,03,27,00,14,4.90
2019,03,27,00,15,4.90
2019,03,27,00,16,4.90
2019,03,27,00,17,4.90
2019,03,27,00,18,4.80
2019,03,27,00,19,4.80
2019,03,27,00,20,4.80
2019,03,27,00,21,4.80
2019,03,27,00,22,4.80
2019,03,27,00,23,4.80
2019,03,27,00,24,4.80
2019,03,27,00,25,4.70
2019,03,27,00,26,4.70
2019,03,27,00,27,4.70
2019,03,27,00,28,4.70
2019,03,27,00,29,4.70
2019,03,27,00,30,4.70
2019,03,27,00,31,4.60
2019,03,27,00,32,4.60
2019,03,27,00,33,4.60
2019,03,27,00,34,4.60
2019,03,27,00,35,4.60
2019,03,27,00,36,4.60
2019,03,27,00,37,4.60
2019,03,27,00,38,4.60
2019,03,27,00,39,4.50
2019,03,27,00,40,4.50
2019,03,27,00,41,4.50
2019,03,27,00,42,4.50
2019,03,27,00,43,4.40
2019,03,27,00,44,4.40
2019,03,27,00,45,4.40
2019,03,27,00,46,4.30
2019,03,27,00,47,4.30
2019,03,27,00,48,4.30
2019,03,27,00,49,4.30
2019,03,27,00,50,4.30
2019,03,27,00,51,4.30
2019,03,27,00,52,4.30
2019,03,27,00,53,4.30
2019,03,27,00,54,4.20
2019,03,27,00,55,4.20
2019,03,27,00,56,4.20
2019,03,27,00,57,4.20
2019,03,27,00,58,4.20
2019,03,27,00,59,4.20
2019,03,27,01,00,4.20
2019,03,27,01,01,4.20
2019,03,27,01,02,4.10
2019,03,27,01,03,4.10
2019,03,27,01,04,4.10
2019,03,27,01,05,4.10
2019,03,27,01,06,4.10
2019,03,27,01,07,4.10
2019,03,27,01,08,4.10
2019,03,27,01,09,4.10
2019,03,27,01,10,4.10
2019,03,27,01,11,4.00
2019,03,27,01,12,4.00
2019,03,27,01,13,4.00
2019,03,27,01,14,4.00
2019,03,27,01,15,4.00
2019,03,27,01,16,4.00
2019,03,27,01,17,3.90
2019,03,27,01,18,3.90
2019,03,27,01,19,3.90
2019,03,27,01,20,3.90
2019,03,27,01,21,3.80
2019,03,27,01,22,3.80
2019,03,27,01,23,3.80
2019,03,27,01,24,3.80
2019,03,27,01,25,3.80
2019,03,27,01,26,3.70
2019,03,27,01,27,3.70
2019,03,27,01,28,3.70
2019,03,27,01,29,3.70
2019,03,27,01,30,3.70
2019,03,27,01,31,3.70
2019,03,27,01,32,3.70
2019,03,27,01,33,3.70
2019,03,27,01,34,3.70
2019,03,27,01,35,3.60
2019,03,27,01,36,3.60
2019,03,27,01,37,3.60
2019,03,27,01,38,3.60
2019,03,27,01,39,3.60
2019,03,27,01,40,3.50
2019,03,27,01,41,3.50
2019,03,27,01,42,3.50
2019,03,27,01,43,3.50
2019,03,27,01,44,3.50
2019,03,27,01,45,3.50
2019,03,27,01,46,3.50
2019,03,27,01,47,3.40
2019,03,27,01,48,3.40
2019,03,27,01,49,3.40
2019,03,27,01,50,3.40
2019,03,27,01,51,3.40
2019,03,27,01,52,3.40
2019,03,27,01,53,3.40
2019,03,27,01,54,3.40
2019,03,27,01,55,3.30
2019,03,27,01,56,3.30
2019,03,27,01,57,3.30
2019,03,27,01,58,3.30
2019,03,27,01,59,3.30
2019,03,27,02,00,3.30
2019,03,27,02,01,3.30
2019,03,27,02,02,3.30
2019,03,27,02,03,3.20
2019,03,27,02,04,3.20
2019,03,27,02,05,3.20
2019,03,27,02,06,3.20
2019,03,27,02,07,3.20
2019,03,27,02,08,3.20
2019,03,27,02,09,3.10
2019,03,27,02,10,3.10
2019,03,27,02,11,3.10
2019,03,27,02,12,3.10
2019,03,27,02,13,3.10
2019,03,27,02,14,3.10
2019,03,27,02,15,3.10
2019,03,27,02,16,3.10
2019,03,27,02,17,3.10
2019,03,27,02,18,3.10
2019,03,27,02,19,3.00
2019,03,27,02,20,3.00
2019,03,27,02,21,3.00
2019,03,27,02,22,3.00
2019,03,27,02,23,3.00
2019,03,27,02,24,3.00
2019,03,27,02,25,2.90
2019,03,27,02,26,3.00
2019,03,27,02,27,2.90
2019,03,27,02,28,2.90
2019,03,27,02,29,2.90
2019,03,27,02,30,3.00
2019,03,27,02,31,3.00
2019,03,27,02,32,2.90
2019,03,27,02,33,2.90
2019,03,27,02,34,2.90
2019,03,27,02,35,2.90
2019,03,27,02,36,2.90
2019,03,27,02,37,2.90
2019,03,27,02,38,2.90
2019,03,27,02,39,2.90
2019,03,27,02,40,2.90
2019,03,27,02,41,2.90
2019,03,27,02,42,2.90
2019,03,27,02,43,2.90
2019,03,27,02,44,2.90
2019,03,27,02,45,2.90
2019,03,27,02,46,2.90
2019,03,27,02,47,2.90
2019,03,27,02,48,2.90
2019,03,27,02,49,2.90
2019,03,27,02,50,2.90
2019,03,27,02,51,2.90
2019,03,27,02,52,2.90
2019,03,27,02,53,2.90
2019,03,27,02,54,2.90
2019,03,27,02,55,2.90
2019,03,27,02,56,2.90
2019,03,27,02,57,2.90
2019,03,27,02,58,2.90
2019,03,27,02,59,2.90
2019,03,27,03,00,2.90
2019,03,27,03,01,2.90
2019,03,27,03,02,2.90
2019,03,27,03,03,2.90
2019,03,27,03,04,2.90
2019,03,27,03,05,2.90
2019,03,27,03,06,2.90
2019,03,27,03,07,2.90
2019,03,27,03,08,2.90
2019,03,27,03,09,3.00
2019,03,27,03,10,3.00
2019,03,27,03,11,3.00
2019,03,27,03,12,3.00
2019,03,27,03,13,3.00
2019,03,27,03,14,3.00
2019,03,27,03,15,3.10
2019,03,27,03,16,3.00
2019,03,27,03,17,3.10
2019,03,27,03,18,3.10
2019,03,27,03,19,3.10
2019,03,27,03,20,3.10
2019,03,27,03,21,3.10
2019,03,27,03,22,3.10
2019,03,27,03,23,3.10
2019,03,27,03,24,3.10
2019,03,27,03,25,3.10
2019,03,27,03,26,3.10
2019,03,27,03,27,3.10
2019,03,27,03,28,3.10
2019,03,27,03,29,3.10
2019,03,27,03,30,3.10
2019,03,27,03,31,3.10
2019,03,27,03,32,3.20
2019,03,27,03,33,3.20
2019,03,27,03,34,3.20
2019,03,27,03,35,3.20
2019,03,27,03,36,3.20
2019,03,27,03,37,3.20
2019,03,27,03,38,3.20
2019,03,27,03,39,3.20
2019,03,27,03,40,3.20
2019,03,27,03,41,3.20
2019,03,27,03,42,3.20
2019,03,27,03,43,3.20
2019,03,27,03,44,3.20
2019,03,27,03,45,3.20
2019,03,27,03,46,3.30
2019,03,27,03,47,3.20
2019,03,27,03,48,3.20
2019,03,27,03,49,3.20
2019,03,27,03,50,3.20
2019,03,27,03,51,3.20
2019,03,27,03,52,3.20
2019,03,27,03,53,3.20
2019,03,27,03,54,3.20
2019,03,27,03,55,3.20
2019,03,27,03,56,3.20
2019,03,27,03,57,3.20
2019,03,27,03,58,3.20
2019,03,27,03,59,3.20
2019,03,27,04,00,3.20
2019,03,27,04,01,3.20
2019,03,27,04,02,3.20
2019,03,27,04,03,3.10
2019,03,27,04,04,3.10
2019,03,27,04,05,3.10
2019,03,27,04,06,3.10
2019,03,27,04,07,3.10
2019,03,27,04,08,3.10
2019,03,27,04,09,3.10
2019,03,27,04,10,3.10
2019,03,27,04,11,3.10
2019,03,27,04,12,3.10
2019,03,27,04,13,3.10
2019,03,27,04,14,3.10
2019,03,27,04,15,3.10
2019,03,27,04,16,3.10
2019,03,27,04,17,3.10
2019,03,27,04,18,3.00
2019,03,27,04,19,3.00
2019,03,27,04,20,3.00
2019,03,27,04,21,3.00
2019,03,27,04,22,3.00
2019,03,27,04,23,2.90
2019,03,27,04,24,2.90
2019,03,27,04,25,2.90
2019,03,27,04,26,2.90
2019,03,27,04,27,2.90
2019,03,27,04,28,2.90
2019,03,27,04,29,2.90
2019,03,27,04,30,2.80
2019,03,27,04,31,2.80
2019,03,27,04,32,2.80
2019,03,27,04,33,2.80
2019,03,27,04,34,2.80
2019,03,27,04,35,2.80
2019,03,27,04,36,2.80
2019,03,27,04,37,2.70
2019,03,27,04,38,2.80
2019,03,27,04,39,2.70
2019,03,27,04,40,2.70
2019,03,27,04,41,2.70
2019,03,27,04,42,2.70
2019,03,27,04,43,2.60
2019,03,27,04,44,2.60
2019,03,27,04,45,2.60
2019,03,27,04,46,2.60
2019,03,27,04,47,2.60
2019,03,27,04,48,2.60
2019,03,27,04,49,2.50
2019,03,27,04,50,2.50
2019,03,27,04,51,2.50
2019,03,27,04,52,2.50
2019,03,27,04,53,2.50
2019,03,27,04,54,2.50
2019,03,27,04,55,2.50
2019,03,27,04,56,2.50
2019,03,27,04,57,2.50
2019,03,27,04,58,2.50
2019,03,27,04,59,2.50
2019,03,27,05,00,2.50
2019,03,27,05,01,2.50
2019,03,27,05,02,2.50
2019,03,27,05,03,2.50
2019,03,27,05,04,2.50
2019,03,27,05,05,2.50
2019,03,27,05,06,2.50
2019,03,27,05,07,2.50
2019,03,27,05,08,2.50
2019,03,27,05,09,2.50
2019,03,27,05,10,2.50
2019,03,27,05,11,2.50
2019,03,27,05,12,2.40
2019,03,27,05,13,2.40
2019,03,27,05,14,2.40
2019,03,27,05,15,2.30
2019,03,27,05,16,2.30
2019,03,27,05,17,2.30
2019,03,27,05,18,2.20
2019,03,27,05,19,2.20
2019,03,27,05,20,2.20
2019,03,27,05,21,2.20
2019,03,27,05,22,2.10
2019,03,27,05,23,2.10
2019,03,27,05,24,2.10
2019,03,27,05,25,2.10
2019,03,27,05,26,2.10
2019,03,27,05,27,2.10
2019,03,27,05,28,2.10
2019,03,27,05,29,2.10
2019,03,27,05,30,2.10
2019,03,27,05,31,2.10
2019,03,27,05,32,2.10
2019,03,27,05,33,2.10
2019,03,27,05,34,2.10
2019,03,27,05,35,2.10
2019,03,27,05,36,2.10
2019,03,27,05,37,2.00
2019,03,27,05,38,2.00
2019,03,27,05,39,2.00
2019,03,27,05,40,2.00
2019,03,27,05,41,2.00
2019,03,27,05,42,2.00
2019,03,27,05,43,1.90
2019,03,27,05,44,2.00
2019,03,27,05,45,1.90
2019,03,27,05,46,1.90
2019,03,27,05,47,1.90
2019,03,27,05,48,1.90
2019,03,27,05,49,1.90
2019,03,27,05,50,1.90
2019,03,27,05,51,1.80
2019,03,27,05,52,1.80
2019,03,27,05,53,1.80
2019,03,27,05,54,1.80
2019,03,27,05,55,1.80
2019,03,27,05,56,1.80
2019,03,27,05,57,1.80
2019,03,27,05,58,1.80
2019,03,27,05,59,1.80
2019,03,27,06,00,1.80
2019,03,27,06,01,1.70
2019,03,27,06,02,1.70
2019,03,27,06,03,1.70
2019,03,27,06,04,1.70
2019,03,27,06,05,1.60
2019,03,27,06,06,1.60
2019,03,27,06,07,1.60
2019,03,27,06,08,1.60
2019,03,27,06,09,1.50
2019,03,27,06,10,1.50
2019,03,27,06,11,1.50
2019,03,27,06,12,1.50
2019,03,27,06,13,1.50
2019,03,27,06,14,1.40
2019,03,27,06,15,1.40
2019,03,27,06,16,1.40
2019,03,27,06,17,1.40
2019,03,27,06,18,1.40
2019,03,27,06,19,1.40
2019,03,27,06,20,1.30
2019,03,27,06,21,1.30
2019,03,27,06,22,1.30
2019,03,27,06,23,1.30
2019,03,27,06,24,1.30
2019,03,27,06,25,1.30
2019,03,27,06,26,1.30
2019,03,27,06,27,1.30
2019,03,27,06,28,1.30
2019,03,27,06,29,1.30
2019,03,27,06,30,1.30
2019,03,27,06,31,1.30
2019,03,27,06,32,1.30
2019,03,27,06,33,1.30
2019,03,27,06,34,1.30
2019,03,27,06,35,1.30
2019,03,27,06,36,1.30
2019,03,27,06,37,1.30
2019,03,27,06,38,1.20
2019,03,27,06,39,1.20
2019,03,27,06,40,1.20
2019,03,27,06,41,1.20
2019,03,27,06,42,1.20
2019,03,27,06,43,1.20
2019,03,27,06,44,1.20
2019,03,27,06,45,1.10
2019,03,27,06,46,1.10
2019,03,27,06,47,1.10
2019,03,27,06,48,1.10
2019,03,27,06,49,1.10
2019,03,27,06,50,1.10
2019,03,27,06,51,1.10
2019,03,27,06,52,1.10
2019,03,27,06,53,1.10
2019,03,27,06,54,1.10
2019,03,27,06,55,1.10
2019,03,27,06,56,1.10
2019,03,27,06,57,1.10
2019,03,27,06,58,1.00
2019,03,27,06,59,1.00
2019,03,27,07,00,1.00
2019,03,27,07,01,1.00
2019,03,27,07,02,1.00
2019,03,27,07,03,1.00
2019,03,27,07,04,1.00
2019,03,27,07,05,1.00
2019,03,27,07,06,0.90
2019,03,27,07,07,1.00
2019,03,27,07,08,1.00
2019,03,27,07,09,0.90
2019,03,27,07,10,0.90
2019,03,27,07,11,0.90
2019,03,27,07,12,0.90
2019,03,27,07,13,0.90
2019,03,27,07,14,0.90
2019,03,27,07,15,0.90
2019,03,27,07,16,0.90
2019,03,27,07,17,0.90
2019,03,27,07,18,0.90
2019,03,27,07,19,0.80
2019,03,27,07,20,0.80
2019,03,27,07,21,0.80
2019,03,27,07,22,0.80
2019,03,27,07,23,0.80
2019,03,27,07,24,0.80
2019,03,27,07,25,0.80
2019,03,27,07,26,0.80
2019,03,27,07,27,0.80
2019,03,27,07,28,0.80
2019,03,27,07,29,0.80
2019,03,27,07,30,0.80
2019,03,27,07,31,0.80
2019,03,27,07,32,0.80
2019,03,27,07,33,0.80
2019,03,27,07,34,0.80
2019,03,27,07,35,0.80
2019,03,27,07,36,0.80
2019,03,27,07,37,0.80
2019,03,27,07,38,0.80
2019,03,27,07,39,0.80
2019,03,27,07,40,0.80
2019,03,27,07,41,0.90
2019,03,27,07,42,0.90
2019,03,27,07,43,0.80
2019,03,27,07,44,0.80
2019,03,27,07,45,0.90
2019,03,27,07,46,0.80
2019,03,27,07,47,0.80
2019,03,27,07,48,0.90
2019,03,27,07,49,0.90
2019,03,27,07,50,0.90
2019,03,27,07,51,0.90
2019,03,27,07,52,0.90
2019,03,27,07,53,1.00
2019,03,27,07,54,1.00
2019,03,27,07,55,1.10
2019,03,27,07,56,1.10
2019,03,27,07,57,1.10
2019,03,27,07,58,1.20
2019,03,27,07,59,1.20
2019,03,27,08,00,1.20
2019,03,27,08,01,1.30
2019,03,27,08,02,1.30
2019,03,27,08,03,1.30
2019,03,27,08,04,1.30
2019,03,27,08,05,1.30
2019,03,27,08,06,1.40
2019,03,27,08,07,1.40
2019,03,27,08,08,1.40
2019,03,27,08,09,1.50
2019,03,27,08,10,1.50
2019,03,27,08,11,1.50
2019,03,27,08,12,1.60
2019,03,27,08,13,1.60
2019,03,27,08,14,1.70
2019,03,27,08,15,1.80
2019,03,27,08,16,1.80
2019,03,27,08,17,1.80
2019,03,27,08,18,1.90
2019,03,27,08,19,1.90
2019,03,27,08,20,2.00
2019,03,27,08,21,2.10
2019,03,27,08,22,2.10
2019,03,27,08,23,2.20
2019,03,27,08,24,2.20
2019,03,27,08,25,2.30
2019,03,27,08,26,2.30
2019,03,27,08,27,2.40
2019,03,27,08,28,2.50
2019,03,27,08,29,2.50
2019,03,27,08,30,2.60
2019,03,27,08,31,2.60
2019,03,27,08,32,2.70
2019,03,27,08,33,2.70
2019,03,27,08,34,2.80
2019,03,27,08,35,2.80
2019,03,27,08,36,2.90
2019,03,27,08,37,3.00
2019,03,27,08,38,3.10
2019,03,27,08,39,3.10
2019,03,27,08,40,3.30
2019,03,27,08,41,3.30
2019,03,27,08,42,3.40
2019,03,27,08,43,3.50
2019,03,27,08,44,3.60
2019,03,27,08,45,3.70
2019,03,27,08,46,3.80
2019,03,27,08,47,3.90
2019,03,27,08,48,4.00
2019,03,27,08,49,4.10
2019,03,27,08,50,4.20
2019,03,27,08,51,4.30
2019,03,27,08,52,4.40
2019,03,27,08,53,4.60
2019,03,27,08,54,4.70
2019,03,27,08,55,4.80
2019,03,27,08,56,4.90
2019,03,27,08,57,5.00
2019,03,27,08,58,5.10
2019,03,27,08,59,5.10
2019,03,27,09,00,5.20
2019,03,27,09,01,5.30
2019,03,27,09,02,5.40
2019,03,27,09,03,5.50
2019,03,27,09,04,5.60
2019,03,27,09,05,5.60
2019,03,27,09,06,5.70
2019,03,27,09,07,5.80
2019,03,27,09,08,5.90
2019,03,27,09,09,6.00
2019,03,27,09,10,6.00
2019,03,27,09,11,6.10
2019,03,27,09,12,6.20
2019,03,27,09,13,6.20
2019,03,27,09,14,6.30
2019,03,27,09,15,6.30
2019,03,27,09,16,6.40
2019,03,27,09,17,6.50
2019,03,27,09,18,6.50
2019,03,27,09,19,6.60
2019,03,27,09,20,6.60
2019,03,27,09,21,6.70
2019,03,27,09,22,6.70
2019,03,27,09,23,6.80
2019,03,27,09,24,6.80
2019,03,27,09,25,6.90
2019,03,27,09,26,6.90
2019,03,27,09,27,7.00
2019,03,27,09,28,7.00
2019,03,27,09,29,7.10
2019,03,27,09,30,7.20
2019,03,27,09,31,7.20
2019,03,27,11,13,9.90
2019,03,27,11,14,9.90
2019,03,27,11,15,9.80
2019,03,27,11,16,9.80
2019,03,27,11,17,9.80
2019,03,27,11,18,9.80
2019,03,27,11,19,9.80
2019,03,27,11,20,9.80
2019,03,27,11,21,9.90
2019,03,27,11,22,9.90
2019,03,27,11,23,10.00
2019,03,27,11,24,10.00
2019,03,27,11,25,10.00
2019,03,27,11,26,10.10
2019,03,27,11,27,10.10
2019,03,27,11,28,10.10
2019,03,27,11,29,10.10
2019,03,27,11,30,10.10
2019,03,27,11,31,10.10
2019,03,27,11,32,10.20
2019,03,27,11,33,10.10
2019,03,27,11,34,10.10
2019,03,27,11,35,10.10
2019,03,27,11,36,10.10
2019,03,27,11,37,10.20
2019,03,27,11,38,10.30
2019,03,27,11,39,10.40
2019,03,27,11,40,10.50
2019,03,27,11,41,10.50
2019,03,27,11,42,10.60
2019,03,27,11,43,10.70
2019,03,27,11,44,10.70
2019,03,27,11,45,10.80
2019,03,27,11,46,10.80
2019,03,27,11,47,10.90
2019,03,27,11,48,10.90
2019,03,27,11,49,10.90
2019,03,27,11,50,11.00
2019,03,27,11,51,11.00
2019,03,27,11,52,11.00
2019,03,27,11,53,11.00
2019,03,27,11,54,11.00
2019,03,27,11,55,11.00
2019,03,27,11,56,11.00
2019,03,27,11,57,10.90
2019,03,27,11,58,10.90
2019,03,27,11,59,10.90
2019,03,27,12,00,10.90
2019,03,27,12,01,10.90
2019,03,27,12,02,10.80
2019,03,27,12,03,10.80
2019,03,27,12,04,10.80
2019,03,27,12,05,10.80
2019,03,27,12,06,10.80
2019,03,27,12,07,10.80
2019,03,27,12,08,10.80
2019,03,27,12,09,10.90
2019,03,27,12,10,11.00
2019,03,27,12,11,11.00
2019,03,27,12,12,11.10
2019,03,27,12,13,11.20
2019,03,27,12,14,11.30
2019,03,27,12,15,11.30
2019,03,27,12,16,11.30
2019,03,27,12,17,11.30
2019,03,27,12,18,11.30
2019,03,27,12,19,11.30
2019,03,27,12,20,11.40
2019,03,27,12,21,11.40
2019,03,27,12,22,11.40
2019,03,27,12,23,11.30
2019,03,27,12,24,11.30
2019,03,27,12,25,11.20
2019,03,27,12,26,11.20
2019,03,27,12,27,11.20
2019,03,27,12,28,11.20
2019,03,27,12,29,11.20
2019,03,27,12,30,11.10
2019,03,27,12,31,11.00
2019,03,27,12,32,11.00
2019,03,27,12,33,11.00
2019,03,27,12,34,11.00
2019,03,27,12,35,11.10
2019,03,27,12,36,11.10
2019,03,27,12,37,11.20
2019,03,27,12,38,11.20
2019,03,27,12,39,11.20
2019,03,27,12,40,11.20
2019,03,27,12,41,11.30
2019,03,27,12,42,11.30
2019,03,27,12,43,11.30
2019,03,27,12,44,11.40
2019,03,27,12,45,11.50
2019,03,27,12,46,11.60
2019,03,27,12,47,11.70
2019,03,27,12,48,11.70
2019,03,27,12,49,11.80
2019,03,27,12,50,11.80
2019,03,27,12,51,11.90
2019,03,27,12,52,11.90
2019,03,27,12,53,12.00
2019,03,27,12,54,12.00
2019,03,27,12,55,12.10
2019,03,27,12,56,12.20
2019,03,27,12,57,12.30
2019,03,27,12,58,12.20
2019,03,27,12,59,12.20
2019,03,27,13,00,12.10
2019,03,27,13,01,12.00
2019,03,27,13,02,12.00
2019,03,27,13,03,11.90
2019,03,27,13,04,11.90
2019,03,27,13,05,11.80
2019,03,27,13,06,11.80
2019,03,27,13,07,11.80
2019,03,27,13,08,11.80
2019,03,27,13,09,11.90
2019,03,27,13,10,11.90
2019,03,27,13,11,11.90
2019,03,27,13,12,11.90
2019,03,27,13,13,11.90
2019,03,27,13,14,11.90
2019,03,27,13,15,11.90
2019,03,27,13,16,11.90
2019,03,27,13,17,11.80
2019,03,27,13,18,11.80
2019,03,27,13,19,11.80
2019,03,27,13,20,11.80
2019,03,27,13,21,11.70
2019,03,27,13,22,11.70
2019,03,27,13,23,11.80
2019,03,27,13,24,11.80
2019,03,27,13,25,11.90
2019,03,27,13,26,11.90
2019,03,27,13,27,11.90
2019,03,27,13,28,11.90
2019,03,27,13,29,12.00
2019,03,27,13,30,12.00
2019,03,27,13,31,12.10
2019,03,27,13,32,12.10
2019,03,27,13,33,12.20
2019,03,27,13,34,12.20
2019,03,27,13,35,12.20
2019,03,27,13,36,12.20
2019,03,27,13,37,12.30
2019,03,27,13,38,12.40
2019,03,27,13,39,12.40
2019,03,27,13,40,12.40
2019,03,27,13,41,12.40
2019,03,27,13,42,12.50
2019,03,27,13,43,12.50
2019,03,27,13,44,12.50
2019,03,27,13,45,12.40
2019,03,27,13,46,12.40
2019,03,27,13,47,12.50
2019,03,27,13,48,12.50
2019,03,27,13,49,12.50
2019,03,27,13,50,12.50
2019,03,27,13,51,12.40
2019,03,27,13,52,12.40
2019,03,27,13,53,12.50
2019,03,27,13,54,12.50
2019,03,27,13,55,12.60
2019,03,27,13,56,12.70
2019,03,27,13,57,12.70
2019,03,27,13,58,12.70
2019,03,27,13,59,12.80
2019,03,27,14,00,12.80
2019,03,27,14,01,12.90
2019,03,27,14,02,12.90
2019,03,27,14,03,13.00
2019,03,27,14,04,13.10
2019,03,27,14,05,13.20
2019,03,27,14,06,13.20
2019,03,27,14,07,13.20
2019,03,27,14,08,13.10
2019,03,27,14,09,13.10
2019,03,27,14,10,13.10
2019,03,27,14,11,13.10
2019,03,27,14,12,13.00
2019,03,27,14,13,13.00
2019,03,27,14,14,13.00
2019,03,27,14,15,13.00
2019,03,27,14,16,13.00
2019,03,27,14,17,13.00
2019,03,27,14,18,13.10
2019,03,27,14,19,13.20
2019,03,27,14,20,13.20
2019,03,27,14,21,13.30
2019,03,27,14,22,13.40
2019,03,27,14,23,13.40
2019,03,27,14,24,13.50
2019,03,27,14,25,13.60
2019,03,27,14,26,13.70
2019,03,27,14,27,13.80
2019,03,27,14,28,13.80
2019,03,27,14,29,13.70
2019,03,27,14,30,13.70
2019,03,27,14,31,13.60
2019,03,27,14,32,13.70
2019,03,27,14,33,13.70
2019,03,27,14,34,13.70
2019,03,27,14,35,13.60
2019,03,27,14,36,13.70
2019,03,27,14,37,13.70
2019,03,27,14,38,13.70
2019,03,27,14,39,13.70
2019,03,27,14,40,13.60
2019,03,27,14,41,13.60
2019,03,27,14,42,13.60
2019,03,27,14,43,13.60
2019,03,27,14,44,13.60
2019,03,27,14,45,13.60
2019,03,27,14,46,13.60
2019,03,27,14,47,13.70
2019,03,27,14,48,13.80
2019,03,27,14,49,13.80
2019,03,27,14,50,13.80
2019,03,27,14,51,13.90
2019,03,27,14,52,13.90
2019,03,27,14,53,14.00
2019,03,27,14,54,14.10
2019,03,27,14,55,14.20
2019,03,27,14,56,14.30
2019,03,27,14,57,14.40
2019,03,27,14,58,14.50
2019,03,27,14,59,14.50
2019,03,27,15,00,14.60
2019,03,27,15,01,14.70
2019,03,27,15,02,14.80
2019,03,27,15,03,14.80
2019,03,27,15,04,14.80
2019,03,27,15,05,14.80
2019,03,27,15,06,14.80
2019,03,27,15,07,14.80
2019,03,27,15,08,14.80
2019,03,27,15,09,14.80
2019,03,27,15,10,14.80
2019,03,27,15,11,14.80
2019,03,27,15,12,14.80
2019,03,27,15,13,14.80
2019,03,27,15,14,14.80
2019,03,27,15,15,14.90
2019,03,27,15,16,14.90
2019,03,27,15,17,15.00
2019,03,27,15,18,15.00
2019,03,27,15,19,15.10
2019,03,27,15,20,15.20
2019,03,27,15,21,15.30
2019,03,27,15,22,15.30
2019,03,27,15,23,15.30
2019,03,27,15,24,15.40
2019,03,27,15,25,15.40
2019,03,27,15,26,15.50
2019,03,27,15,27,15.50
2019,03,27,15,28,15.60
2019,03,27,15,29,15.60
2019,03,27,15,30,15.60
2019,03,27,15,31,15.50
2019,03,27,15,32,15.50
2019,03,27,15,33,15.40
2019,03,27,15,34,15.40
2019,03,27,15,35,15.40
2019,03,27,15,36,15.50
2019,03,27,15,37,15.60
2019,03,27,15,38,15.60
2019,03,27,15,39,15.80
2019,03,27,15,40,15.90
2019,03,27,15,41,16.00
2019,03,27,15,42,16.10
2019,03,27,15,43,16.20
2019,03,27,15,44,16.30
2019,03,27,15,45,16.40
2019,03,27,15,46,16.60
2019,03,27,15,47,16.70
2019,03,27,15,48,16.80
2019,03,27,15,49,16.80
2019,03,27,15,50,16.90
2019,03,27,15,51,17.10
2019,03,27,15,52,17.10
2019,03,27,15,53,17.20
2019,03,27,15,54,17.30
2019,03,27,15,55,17.30
2019,03,27,15,56,17.30
2019,03,27,15,57,17.30
2019,03,27,15,58,17.30
2019,03,27,15,59,17.30
2019,03,27,16,00,17.30
2019,03,27,16,01,17.30
2019,03,27,16,02,17.30
2019,03,27,16,03,17.30
2019,03,27,16,04,17.30
2019,03,27,16,05,17.30
2019,03,27,16,06,17.30
2019,03,27,16,07,17.40
2019,03,27,16,08,17.40
2019,03,27,16,09,17.40
2019,03,27,16,10,17.50
2019,03,27,16,11,17.50
2019,03,27,16,12,17.60
2019,03,27,16,13,17.70
2019,03,27,16,14,17.70
2019,03,27,16,15,17.70
2019,03,27,16,16,17.60
2019,03,27,16,17,17.60
2019,03,27,16,18,17.60
2019,03,27,16,19,17.50
2019,03,27,16,20,17.50
2019,03,27,16,21,17.40
2019,03,27,16,22,17.40
2019,03,27,16,23,17.30
2019,03,27,16,24,17.30
2019,03,27,16,25,17.30
2019,03,27,16,26,17.30
2019,03,27,16,27,17.30
2019,03,27,16,28,17.20
2019,03,27,16,29,17.20
2019,03,27,16,30,17.20
2019,03,27,16,31,17.30
2019,03,27,16,32,17.30
2019,03,27,16,33,17.30
2019,03,27,16,34,17.30
2019,03,27,16,35,17.30
2019,03,27,16,36,17.30
2019,03,27,16,37,17.30
2019,03,27,16,38,17.30
2019,03,27,16,39,17.30
2019,03,27,16,40,17.30
2019,03,27,16,41,17.30
2019,03,27,16,42,17.30
2019,03,27,16,43,17.20
2019,03,27,16,44,17.20
2019,03,27,16,45,17.20
2019,03,27,16,46,17.20
2019,03,27,16,47,17.20
2019,03,27,16,48,17.10
2019,03,27,16,49,17.10
2019,03,27,16,50,17.10
2019,03,27,16,51,17.10
2019,03,27,16,52,17.10
2019,03,27,16,53,17.10
2019,03,27,16,54,17.10
2019,03,27,16,55,17.10
2019,03,27,16,56,17.10
2019,03,27,16,57,17.10
2019,03,27,16,58,17.10
2019,03,27,16,59,17.10
2019,03,27,17,00,17.10
2019,03,27,17,01,17.10
2019,03,27,17,02,17.00
2019,03,27,17,03,17.00
2019,03,27,17,04,17.00
2019,03,27,17,05,17.00
2019,03,27,17,06,17.00
2019,03,27,17,07,17.00
2019,03,27,17,08,17.00
2019,03,27,17,09,17.00
2019,03,27,17,10,17.00
2019,03,27,17,11,17.00
2019,03,27,17,12,17.00
2019,03,27,17,13,17.00
2019,03,27,17,14,16.90
2019,03,27,17,15,16.90
2019,03,27,17,16,16.90
2019,03,27,17,17,16.90
2019,03,27,17,18,16.90
2019,03,27,17,19,16.90
2019,03,27,17,20,16.90
2019,03,27,17,21,16.80
2019,03,27,17,22,16.90
2019,03,27,17,23,16.90
2019,03,27,17,24,16.90
2019,03,27,17,25,16.90
2019,03,27,17,26,16.90
2019,03,27,17,27,16.90
2019,03,27,17,28,16.90
2019,03,27,17,29,16.90
2019,03,27,17,30,16.90
2019,03,27,17,31,16.90
2019,03,27,17,32,16.90
2019,03,27,17,33,16.90
2019,03,27,17,34,16.90
2019,03,27,17,35,16.90
2019,03,27,17,36,16.90
2019,03,27,17,37,16.90
2019,03,27,17,38,16.90
2019,03,27,17,39,16.90
2019,03,27,17,40,16.90
2019,03,27,17,41,16.90
2019,03,27,17,42,16.80
2019,03,27,17,43,16.80
2019,03,27,17,44,16.80
2019,03,27,17,45,16.80
2019,03,27,17,46,16.80
2019,03,27,17,47,16.80
2019,03,27,17,48,16.80
2019,03,27,17,49,16.80
2019,03,27,17,50,16.80
2019,03,27,17,51,16.80
2019,03,27,17,52,16.80
2019,03,27,17,53,16.80
2019,03,27,17,54,16.80
2019,03,27,17,55,16.80
2019,03,27,17,56,16.80
2019,03,27,17,57,16.80
2019,03,27,17,58,16.80
2019,03,27,17,59,16.80
2019,03,27,18,00,16.80
2019,03,27,18,01,16.80
2019,03,27,18,02,16.70
2019,03,27,18,03,16.70
2019,03,27,18,04,16.70
2019,03,27,18,05,16.60
2019,03,27,18,06,16.60
2019,03,27,18,07,16.50
2019,03,27,18,08,16.50
2019,03,27,18,09,16.50
2019,03,27,18,10,16.50
2019,03,27,18,11,16.40
2019,03,27,18,12,16.50
2019,03,27,18,13,16.40
2019,03,27,18,14,16.40
2019,03,27,18,15,16.40
2019,03,27,18,16,16.30
2019,03,27,18,17,16.30
2019,03,27,18,18,16.30
2019,03,27,18,19,16.30
2019,03,27,18,20,16.30
2019,03,27,18,21,16.30
2019,03,27,18,22,16.30
2019,03,27,18,23,16.30
2019,03,27,18,24,16.30
2019,03,27,18,25,16.30
2019,03,27,18,26,16.30
2019,03,27,18,27,16.30
2019,03,27,18,28,16.30
2019,03,27,18,29,16.30
2019,03,27,18,30,16.30
2019,03,27,18,31,16.30
2019,03,27,18,32,16.30
2019,03,27,18,33,16.30
2019,03,27,18,34,16.30
2019,03,27,18,35,16.30
2019,03,27,18,36,16.30
2019,03,27,18,37,16.30
2019,03,27,18,38,16.20
2019,03,27,18,39,16.20
2019,03,27,18,40,16.20
2019,03,27,18,41,16.20
2019,03,27,18,42,16.10
2019,03,27,18,43,16.10
2019,03,27,18,44,16.10
2019,03,27,18,45,16.10
2019,03,27,18,46,16.10
2019,03,27,18,47,16.10
2019,03,27,18,48,16.10
2019,03,27,18,49,16.00
2019,03,27,18,50,16.00
2019,03,27,18,51,15.90
2019,03,27,18,52,15.90
2019,03,27,18,53,15.90
2019,03,27,18,54,15.90
2019,03,27,18,55,15.90
2019,03,27,18,56,15.90
2019,03,27,18,57,15.90
2019,03,27,18,58,15.90
2019,03,27,18,59,15.80
2019,03,27,19,00,15.80
2019,03,27,19,01,15.80
2019,03,27,19,02,15.80
2019,03,27,19,03,15.80
2019,03,27,19,04,15.80
2019,03,27,19,05,15.80
2019,03,27,19,06,15.70
2019,03,27,19,07,15.70
2019,03,27,19,08,15.70
2019,03,27,19,09,15.70
2019,03,27,19,10,15.60
2019,03,27,19,11,15.60
2019,03,27,19,12,15.60
2019,03,27,19,13,15.50
2019,03,27,19,14,15.50
2019,03,27,19,15,15.50
2019,03,27,19,16,15.40
2019,03,27,19,17,15.40
2019,03,27,19,18,15.40
2019,03,27,19,19,15.30
2019,03,27,19,20,15.20
2019,03,27,19,21,15.20
2019,03,27,19,22,15.10
2019,03,27,19,23,15.00
2019,03,27,19,24,14.90
2019,03,27,19,25,14.90